2023/01/26 00:00:00,80.4,-6.3
2023/01/26 00:10:00,80.2,-6.4
2023/01/26 00:20:00,80.0,-6.1
2023/01/26 00:30:00,79.9,-6.3
2023/01/26 00:40:00,79.8,-6.6
2023/01/26 00:50:00,79.7,-7.1
2023/01/26 01:00:00,79.5,-7.3
2023/01/26 01:10:00,79.4,-7.3
2023/01/26 01:20:00,79.3,-7.4
2023/01/26 01:30:00,79.1,-7.5
2023/01/26 01:40:00,79.0,-7.3
2023/01/26 01:50:00,78.9,-7.2
2023/01/26 02:00:00,78.8,-6.9
2023/01/26 02:10:00,78.7,-7.0
2023/01/26 02:20:00,78.7,-7.1
2023/01/26 02:30:00,78.7,-7.2
2023/01/26 02:40:00,78.8,-7.1
2023/01/26 02:50:00,78.6,-6.7
2023/01/26 03:00:00,78.2,-6.9
2023/01/26 03:10:00,77.9,-6.5
2023/01/26 03:20:00,77.7,-6.9
2023/01/26 03:30:00,77.4,-6.1
2023/01/26 03:40:00,77.2,-6.4
2023/01/26 03:50:00,77.1,-6.0
2023/01/26 04:00:00,77.1,-6.2
2023/01/26 04:10:00,76.8,-6.1
2023/01/26 04:20:00,76.8,-5.9
2023/01/26 04:30:00,76.7,-6.3
2023/01/26 04:40:00,76.7,-6.2
2023/01/26 04:50:00,76.5,-6.2
2023/01/26 05:00:00,76.3,-6.0
2023/01/26 05:10:00,76.3,-5.6
2023/01/26 05:20:00,76.2,-6.0
2023/01/26 05:30:00,76.2,-5.8
2023/01/26 05:40:00,76.0,-5.6
2023/01/26 05:50:00,75.8,-5.7
2023/01/26 06:00:00,75.7,-5.4
2023/01/26 06:10:00,75.6,-5.6
2023/01/26 06:20:00,75.5,-5.3
2023/01/26 06:30:00,75.6,-5.5
2023/01/26 06:40:00,75.6,-5.3
2023/01/26 06:50:00,75.5,-5.3
2023/01/26 07:00:00,75.5,-5.2
2023/01/26 07:10:00,75.3,-5.3
2023/01/26 07:20:00,75.3,-5.3
2023/01/26 07:30:00,75.1,-5.2
2023/01/26 07:40:00,75.0,-4.9
2023/01/26 07:50:00,74.8,-5.0
2023/01/26 08:00:00,74.7,-4.7
2023/01/26 08:10:00,74.8,-4.8
2023/01/26 08:20:00,74.9,-4.3
2023/01/26 08:30:00,75.1,-4.5
2023/01/26 08:40:00,74.7,-4.2
2023/01/26 08:50:00,74.3,-3.9
2023/01/26 09:00:00,74.3,-4.2
2023/01/26 09:10:00,74.1,-4.0
2023/01/26 09:20:00,73.9,-4.1
2023/01/26 09:30:00,73.8,-4.1
2023/01/26 09:40:00,73.5,-3.7
2023/01/26 09:50:00,73.5,-3.7
2023/01/26 10:00:00,73.4,-3.3
2023/01/26 10:10:00,73.2,-3.2
2023/01/26 10:20:00,73.3,-3.9
2023/01/26 10:30:00,73.1,-3.9
2023/01/26 10:40:00,72.9,-3.7
2023/01/26 10:50:00,72.6,-3.1
2023/01/26 11:00:00,72.1,-2.8
2023/01/26 11:10:00,72.0,-2.6
2023/01/26 11:20:00,71.6,-2.1
2023/01/26 11:30:00,43.6,-1.9
2023/01/26 11:40:00,---,-1.6
2023/01/26 11:50:00,37.8,-1.0
2023/01/26 12:00:00,71.0,-2.0
2023/01/26 12:10:00,71.4,-2.1
2023/01/26 12:20:00,71.4,-2.5
2023/01/26 12:30:00,71.6,-2.9
2023/01/26 12:40:00,71.5,-2.7
2023/01/26 12:50:00,71.3,-2.6
2023/01/26 13:00:00,70.9,-2.2
2023/01/26 13:10:00,70.5,-2.3
2023/01/26 13:20:00,70.6,-2.5
2023/01/26 13:30:00,70.4,-2.3
2023/01/26 13:40:00,70.7,-2.6
2023/01/26 13:50:00,71.3,-2.5
2023/01/26 14:00:00,70.6,-2.6
2023/01/26 14:10:00,70.5,-2.6
2023/01/26 14:20:00,70.2,-3.2
2023/01/26 14:30:00,69.4,-2.9
2023/01/26 14:40:00,68.3,-2.5
2023/01/26 14:50:00,68.0,-2.6
2023/01/26 15:00:00,68.1,-2.6
2023/01/26 15:10:00,68.1,-2.8
2023/01/26 15:20:00,68.0,-2.9
2023/01/26 15:30:00,67.9,-2.9
2023/01/26 15:40:00,67.8,-2.8
2023/01/26 15:50:00,67.7,-2.9
2023/01/26 16:00:00,67.6,-2.6
2023/01/26 16:10:00,67.5,-2.6
2023/01/26 16:20:00,67.5,-2.7
2023/01/26 16:30:00,67.4,-2.8
2023/01/26 16:40:00,67.2,-2.6
2023/01/26 16:50:00,67.3,-2.9
2023/01/26 17:00:00,67.3,-3.1
2023/01/26 17:10:00,67.2,-3.0
2023/01/26 17:20:00,67.2,-2.9
2023/01/26 17:30:00,67.1,-3.2
2023/01/26 17:40:00,67.0,-3.1
2023/01/26 17:50:00,66.9,-3.2
2023/01/26 18:00:00,66.8,-3.2
2023/01/26 18:10:00,66.7,-3.3
2023/01/26 18:20:00,66.6,-3.2
2023/01/26 18:30:00,66.6,-3.4
2023/01/26 18:40:00,66.5,-3.4
2023/01/26 18:50:00,66.4,-3.2
2023/01/26 19:00:00,66.3,-3.6
2023/01/26 19:10:00,66.3,-3.7
2023/01/26 19:20:00,66.2,-3.6
2023/01/26 19:30:00,66.1,-3.7
2023/01/26 19:40:00,66.0,-3.4
2023/01/26 19:50:00,65.9,-3.3
2023/01/26 20:00:00,65.8,-3.6
2023/01/26 20:10:00,65.8,-3.6
2023/01/26 20:20:00,65.7,-3.7
2023/01/26 20:30:00,65.7,-3.2
2023/01/26 20:40:00,65.6,-3.9
2023/01/26 20:50:00,65.5,-3.7
2023/01/26 21:00:00,65.5,-3.7
2023/01/26 21:10:00,65.4,-3.8
2023/01/26 21:20:00,65.4,-3.8
2023/01/26 21:30:00,65.5,-3.7
2023/01/26 21:40:00,65.5,-3.8
2023/01/26 21:50:00,65.4,-3.9
2023/01/26 22:00:00,65.4,-3.8
2023/01/26 22:10:00,65.3,-3.7
2023/01/26 22:20:00,65.2,-3.6
2023/01/26 22:30:00,65.1,-3.8
2023/01/26 22:40:00,65.1,-3.9
2023/01/26 22:50:00,65.0,-3.7
2023/01/26 23:00:00,64.9,-4.1
2023/01/26 23:10:00,64.9,-3.9
2023/01/26 23:20:00,64.8,-3.9
2023/01/26 23:30:00,64.8,-3.9
2023/01/26 23:40:00,64.7,-4.1
2023/01/26 23:50:00,64.7,-3.9
